EW6057 Weather Reports


time (UTC)temp
C
wind
direction
speed
KPH
gust
KPH
rain 1hr
cm
rain 24hr
cm
rain mn
cm
humidity
%
barometer
mb
20260901023053 26 61 0.0 0.0 0.00 0.00 0.00 59 1010.1
20260901021553 26 99 0.0 0.0 0.00 0.00 0.00 58 1009.9
20260901020046 27 107 0.0 0.0 0.00 0.00 0.00 56 1009.8
20260901014536 27 79 0.0 0.0 0.00 0.00 0.00 56 1009.7
20260901013018 27 81 0.0 0.0 0.00 0.00 0.00 55 1009.6
20260901011518 28 70 0.0 0.0 0.00 0.00 0.00 53 1009.5
20260901010059 28 70 0.0 0.0 0.00 0.00 0.00 52 1009.4
20260901004607 28 68 0.0 0.0 0.00 0.00 0.00 50 1009.4
20260901003048 29 77 0.0 0.0 0.00 0.00 0.00 50 1009.5
20260901001547 30 76 0.0 0.0 0.00 0.00 0.00 46 1009.4
20260901000104 30 94 0.0 0.0 0.00 0.00 0.00 45 1009.5
20260831234552 30 70 0.0 0.0 0.00 0.00 0.00 44 1009.6
20260831233045 30 89 0.0 0.0 0.00 0.00 0.00 43 1009.5
20260831231550 30 98 0.0 0.0 0.00 0.00 0.00 43 1009.6
20260831230045 30 103 0.0 0.0 0.00 0.00 0.00 42 1009.7
20260831224544 30 131 0.0 0.0 0.00 0.00 0.00 42 1009.7
20260831223052 30 143 0.0 0.0 0.00 0.00 0.00 43 1009.8
20260831221540 30 65 0.0 0.0 0.00 0.00 0.00 44 1009.8
20260831220023 30 293 0.0 0.0 0.00 0.00 0.00 43 1009.9
20260831214523 30 319 0.0 0.0 0.00 0.00 0.00 42 1009.8
20260831213005 30 169 0.0 0.0 0.00 0.00 0.00 41 1009.8
20260831211505 31 255 0.0 0.0 0.00 0.00 0.00 40 1010.0
20260831210111 30 127 0.0 0.0 0.00 0.00 0.00 41 1010.1
20260831204547 30 159 0.0 0.0 0.00 0.00 0.00 39 1010.3
20260831203046 30 134 0.0 0.0 0.00 0.00 0.00 39 1010.3
20260831201530 31 101 0.0 0.0 0.00 0.00 0.00 37 1010.4
20260831200032 30 160 0.0 0.0 0.00 0.00 0.00 38 1010.4
20260831194511 31 106 0.0 0.0 0.00 0.00 0.00 36 1010.5
20260831193010 31 211 0.0 0.0 0.00 0.00 0.00 35 1010.8
20260831191549 31 222 0.0 0.0 0.00 0.00 0.00 35 1011.0
20260831184528 30 312 0.0 0.0 0.00 0.00 0.00 36 1011.0
20260831183027 30 212 0.0 0.0 0.00 0.00 0.00 39 1011.2
20260831181509 30 321 0.0 0.0 0.00 0.00 0.00 41 1011.4
20260831180006 29 221 0.0 0.0 0.00 0.00 0.00 38 1011.5
20260831174546 28 128 0.0 0.0 0.00 0.00 0.00 40 1011.7
20260831173044 28 251 0.0 0.0 0.00 0.00 0.00 43 1012.1
20260831171525 27 221 0.0 0.0 0.00 0.00 0.00 44 1012.0
20260831170026 25 345 0.0 0.0 0.00 0.00 0.00 50 1012.0
20260831164509 23 309 0.0 0.0 0.00 0.00 0.00 53 1011.9
20260831163002 23 297 0.0 0.0 0.00 0.00 0.00 55 1011.8
20260831161544 22 303 0.0 0.0 0.00 0.00 0.00 55 1011.9
20260831160048 22 299 0.0 0.0 0.00 0.00 0.00 57 1012.0
20260831154526 22 304 0.0 0.0 0.00 0.00 0.00 59 1011.9
20260831153027 21 24 0.0 0.0 0.00 0.00 0.00 61 1012.0
20260831151507 20 64 0.0 0.0 0.00 0.00 0.00 63 1011.9
20260831150005 20 306 0.0 0.0 0.00 0.00 0.00 68 1011.7
20260831144547 18 307 0.0 0.0 0.00 0.00 0.00 76 1011.8
20260831143106 17 282 0.0 0.0 0.00 0.00 0.00 79 1011.9
20260831141544 17 302 0.0 0.0 0.00 0.00 0.00 81 1011.7
20260831140038 16 301 0.0 0.0 0.00 0.00 0.00 82 1011.7
20260831134506 16 295 0.0 0.0 0.00 0.00 0.00 82 1011.4
20260831133007 16 306 0.0 0.0 0.00 0.00 0.00 82 1011.2
20260831131547 16 298 0.0 0.0 0.00 0.00 0.00 83 1011.1
20260831130053 15 291 0.0 0.0 0.00 0.00 0.00 84 1011.1
20260831124526 15 314 0.0 0.0 0.00 0.00 0.00 84 1010.9
20260831123023 15 304 0.0 0.0 0.00 0.00 0.00 84 1010.4
20260831121505 15 304 0.0 0.0 0.00 0.00 0.00 84 1010.1
20260831120004 15 304 0.0 0.0 0.00 0.00 0.00 84 1010.3
20260831114544 15 304 0.0 0.0 0.00 0.00 0.00 84 1010.0
20260831113042 15 296 0.0 0.0 0.00 0.00 0.00 84 1009.7
20260831111529 16 321 0.0 0.0 0.00 0.00 0.00 83 1009.8
20260831110025 16 298 0.0 0.0 0.00 0.00 0.00 82 1009.8
20260831104525 17 317 0.0 0.0 0.00 0.00 0.00 83 1009.8
20260831103021 17 281 0.0 0.0 0.00 0.00 0.00 82 1009.6
20260831101524 17 290 0.0 0.0 0.00 0.00 0.00 82 1009.6
20260831100016 17 319 0.0 0.0 0.00 0.00 0.00 81 1009.1
20260831094512 17 308 0.0 1.6 0.00 0.00 0.00 81 1008.8
20260831093013 17 314 0.0 0.0 0.00 0.00 0.00 82 1008.4
20260831091549 18 297 0.0 0.0 0.00 0.00 0.00 82 1008.1
20260831084527 18 310 0.0 0.0 0.00 0.00 0.00 80 1007.7
20260831083027 18 301 0.0 0.0 0.00 0.00 0.00 80 1007.7
20260831081506 19 311 0.0 0.0 0.00 0.00 0.00 83 1007.5
20260831080002 19 305 0.0 0.0 0.00 0.00 0.00 83 1007.1
20260831074542 20 309 0.0 0.0 0.00 0.00 0.00 82 1006.7
20260831073040 20 329 0.0 0.0 0.00 0.00 0.00 81 1006.8
20260831071520 20 307 0.0 3.2 0.00 0.00 0.00 80 1006.8
20260831070026 21 303 0.0 14.5 0.00 0.00 0.00 79 1006.5
20260831064557 21 304 1.6 24.1 0.00 0.00 0.00 80 1006.4
20260831063051 22 306 0.0 12.9 0.00 0.00 0.00 82 1006.2
20260831061530 22 314 0.0 4.8 0.00 0.00 0.00 79 1005.9
20260831060027 23 271 0.0 0.0 0.00 0.00 0.00 68 1005.5
20260831054510 23 284 0.0 0.0 0.00 0.00 0.00 64 1005.0
20260831053101 24 284 0.0 0.0 0.00 0.00 0.00 60 1004.8
20260831051541 25 281 0.0 0.0 0.00 0.00 0.00 56 1004.6
20260831050035 26 261 0.0 4.8 0.00 0.00 0.00 53 1004.3
20260831044517 26 259 0.0 1.6 0.00 0.00 0.00 51 1004.2
20260831043016 26 245 0.0 1.6 0.00 0.00 0.00 51 1003.7
20260831041602 27 275 0.0 0.0 0.00 0.00 0.00 52 1003.5
20260831040058 26 148 0.0 0.0 0.00 0.00 0.00 52 1003.3
20260831034544 26 149 0.0 0.0 0.00 0.00 0.00 55 1003.4
20260831033040 25 78 0.0 0.0 0.00 0.00 0.00 60 1003.2
20260831031528 25 78 0.0 0.0 0.00 0.00 0.00 62 1003.2
20260831030024 26 79 0.0 0.0 0.00 0.00 0.00 60 1003.2
20260831024505 26 105 0.0 0.0 0.00 0.00 0.00 58 1003.0